Lapse_Rate
5.4 5.1 5.1 4.5 5.0 5.0 4.5 4.6 4.8 5.1 5.0 6.4 7.2 7.6 7.6 7.8 6.1 5.3 4.5 5.4 5.8 6.7 8.3 8.6 8.3 8.2 7.4 6.2 6.5 5.4 5.2 4.8 4.5 4.2 4.0 4.0 4.0 3.8 3.6 3.6 3.6 3.6 3.8
5.5 5.9 6.0 5.3 4.7 4.7 4.8 4.7 4.4 4.7 4.9 5.7 5.4 7.7 7.3 8.0 6.8 5.7 4.7 5.3 6.3 7.4 7.9 8.3 8.0 8.1 8.7 6.6 6.4 5.4 4.6 4.5 4.5 4.3 4.0 4.0 3.9 3.8 3.6 3.7 3.7 3.8 4.1
6.2 6.1 5.9 5.7 5.0 5.4 5.1 4.6 4.4 4.7 5.1 5.6 6.6 6.6 7.3 7.6 8.1 6.4 5.9 6.0 6.9 7.7 7.9 8.8 8.5 8.5 8.5 8.3 7.3 5.2 4.8 4.7 4.6 4.4 4.1 4.0 3.9 3.9 3.7 3.8 3.9 3.9 4.2
6.9 6.3 5.6 5.5 5.6 4.1 3.7 4.3 4.7 5.5 5.5 5.4 7.1 6.8 7.3 7.1 7.4 7.3 6.5 6.8 7.2 7.7 8.0 8.1 7.9 8.1 8.0 8.5 7.7 5.4 5.0 4.5 4.4 4.6 4.2 4.2 4.0 3.9 3.9 3.9 4.0 4.1 4.2
6.8 5.8 6.1 5.4 4.3 3.8 4.1 4.5 5.1 5.5 5.4 5.6 7.2 6.4 6.9 6.4 6.9 8.7 7.0 7.2 7.3 8.0 7.7 7.3 7.4 8.2 8.1 8.2 7.1 5.1 4.9 4.6 4.4 4.5 4.3 4.2 4.1 4.1 4.1 4.1 4.1 4.2 4.2
6.3 5.2 5.2 4.5 4.3 3.8 4.5 4.9 5.1 5.0 5.3 6.5 8.3 7.3 6.4 6.3 6.5 6.3 7.4 7.3 7.3 7.6 7.8 6.9 7.2 7.5 7.9 8.0 6.7 5.2 4.9 4.5 4.4 4.4 4.5 4.3 4.2 4.2 4.2 4.2 4.1 4.0 4.1
5.5 5.3 5.1 4.7 4.9 4.8 4.2 4.7 4.9 5.2 4.9 6.3 5.0 5.6 5.3 5.9 6.6 6.5 6.6 6.9 6.8 7.1 7.4 6.4 5.8 6.1 5.8 7.7 6.1 5.1 5.0 4.9 4.7 4.7 4.5 4.4 4.3 4.2 4.1 4.1 3.9 3.9 3.9
5.6 5.5 5.0 5.2 4.9 4.7 4.8 4.9 5.2 5.4 5.4 6.2 6.0 5.7 5.2 5.7 6.0 6.7 6.3 6.8 7.2 7.9 8.2 6.8 6.6 6.9 5.4 5.0 4.6 4.5 4.7 5.0 5.2 4.9 4.8 4.8 4.6 4.3 4.1 4.0 4.1 4.0 3.6
5.5 5.4 5.2 5.1 4.6 4.9 5.2 4.7 5.4 5.6 5.7 5.7 6.7 6.5 6.0 6.0 5.3 5.8 5.9 5.8 6.3 6.1 7.0 7.9 7.4 7.7 7.0 6.0 5.3 4.3 4.5 4.6 4.9 5.2 5.1 4.8 4.6 4.5 4.3 4.2 4.1 4.4 4.1
6.0 5.5 5.1 4.2 5.0 4.5 4.9 4.9 5.4 5.7 5.3 6.7 6.0 7.2 6.2 5.8 5.7 5.4 5.7 6.2 5.8 6.8 6.2 7.0 7.4 8.4 8.8 6.7 6.5 5.0 4.1 4.1 4.1 4.4 4.8 5.1 4.7 4.6 4.5 4.3 4.1 4.2 4.2
5.8 5.8 4.7 4.7 4.6 4.6 4.5 4.9 4.9 5.7 5.3 5.9 6.7 6.2 6.0 5.8 5.9 5.0 5.9 6.0 5.8 6.3 6.2 5.9 6.8 7.4 8.6 8.6 8.1 6.6 4.7 4.3 3.9 4.0 4.0 4.3 4.6 4.9 4.6 4.5 4.3 4.4 4.3
4.5 4.4 4.7 4.9 5.2 5.3 4.6 4.6 5.2 5.4 5.7 5.6 6.2 6.3 6.2 5.6 6.2 5.5 5.5 5.9 5.8 6.3 6.0 5.5 5.2 6.4 7.8 7.9 7.6 7.9 7.2 5.5 4.4 3.9 3.5 3.7 4.0 4.3 4.5 4.5 4.3 4.4 4.4
3.7 3.5 3.2 3.8 4.5 4.8 4.5 4.6 5.4 5.6 5.5 5.4 6.6 6.7 5.9 5.9 6.3 6.0 6.2 5.5 5.7 6.0 5.8 6.0 5.1 5.4 6.3 7.0 6.7 7.2 7.0 6.1 5.3 4.7 3.9 3.5 3.5 3.7 3.9 4.2 4.7 4.9 4.9
3.8 3.8 3.5 4.3 4.3 4.7 4.7 4.7 5.0 5.7 5.4 5.6 6.2 5.6 5.5 5.7 5.6 5.7 4.5 4.2 4.7 5.6 5.4 5.5 5.9 5.1 5.1 5.5 5.9 6.7 6.0 6.6 5.8 4.5 3.8 3.4 3.1 3.3 3.5 3.3 3.9 4.0 4.3
4.6 4.0 3.7 4.1 4.3 4.0 4.8 4.9 5.1 5.6 5.7 6.0 5.6 5.4 5.6 5.3 4.8 4.6 5.1 4.8 5.8 5.5 5.8 5.9 5.0 5.7 5.6 6.1 6.1 6.3 5.9 5.7 5.8 5.5 4.6 3.4 2.6 2.3 2.6 2.3 2.5 2.6 2.8
5.3 4.5 4.1 4.0 4.0 4.1 4.0 4.1 4.7 4.9 5.5 5.2 4.8 4.9 4.9 4.8 5.0 4.6 4.8 4.9 5.7 6.4 6.7 6.5 5.8 6.2 6.0 7.3 7.6 7.3 7.1 6.7 6.3 5.8 5.3 4.5 3.4 2.3 1.6 1.8 1.4 1.4 1.6
6.2 5.6 5.1 4.2 3.8 4.1 4.1 4.2 4.0 4.2 4.4 4.2 4.5 4.5 4.5 4.7 4.5 5.0 5.2 5.2 5.1 5.6 6.0 6.4 6.7 6.3 5.7 5.1 6.4 7.0 7.1 6.6 6.4 6.9 6.3 5.1 3.9 2.8 2.5 1.6 1.0 0.7 0.5
5.9 5.7 5.7 5.4 4.9 4.4 4.2 4.3 4.4 4.2 4.3 4.1 4.0 4.2 4.9 5.2 4.7 5.2 5.3 5.7 6.3 6.5 6.3 6.7 6.5 5.8 5.6 6.0 5.9 5.5 6.5 7.3 7.4 7.9 7.2 5.6 5.0 3.7 2.8 1.5 1.3 0.8 -0.5
5.4 5.6 5.8 5.6 5.6 5.0 4.4 4.3 4.4 4.0 4.0 4.6 4.6 4.7 4.6 4.7 5.1 5.2 5.3 6.5 6.2 6.3 6.1 5.7 6.1 6.4 6.2 5.6 5.3 5.3 5.4 5.0 5.7 5.9 6.1 6.5 5.0 3.5 1.0 -1.6 -1.7 -1.7 -1.3
5.9 5.9 5.4 2.2 1.2 0.3 0.7 2.4 4.9 4.8 4.6 4.9 4.8 4.7 4.7 4.8 4.9 4.9 5.6 5.9 6.5 6.6 6.2 5.7 5.3 5.4 5.5 5.8 6.9 6.7 6.3 5.9 5.9 6.9 7.7 6.6 -1.1 -3.4 -4.1 -3.9 -4.0 -3.9 -4.1
1.5 2.2 0.9 -0.1 -1.2 -1.9 -2.7 -2.2 0.8 4.0 5.2 5.1 4.6 5.1 2.3 -0.8 -1.9 -1.5 4.3 3.9 5.0 6.2 6.6 6.8 6.7 6.8 7.1 6.7 6.3 5.7 5.5 5.2 5.0 0.8 2.6 -1.2 -2.4 -3.9 -4.7 -4.7 -4.2 -4.0 -4.2
-1.1 -2.0 -2.2 -2.4 -2.5 -2.8 -4.0 -3.5 -2.1 2.6 0.9 0.7 -0.2 -0.2 0.1 -3.2 -2.3 -2.8 -4.1 -4.2 -3.7 0.5 2.4 3.6 4.6 4.8 4.3 -0.7 -0.2 -0.0 1.3 2.9 4.0 -1.6 0.5 -0.2 -2.7 -3.8 -4.0 -4.6 -4.4 -4.0 -3.7
-2.2 -2.8 -3.1 -3.1 -3.8 -3.8 -3.8 -3.1 -2.3 -1.8 -2.9 -3.2 -3.0 -2.2 -1.6 -2.9 -3.7 -2.6 -2.8 -4.4 -5.0 -5.1 -5.4 -2.6 -0.5 -4.4 -3.3 -4.8 -4.2 -1.7 0.2 0.6 1.9 -2.5 -1.4 1.1 -3.2 -3.6 -4.2 -3.9 -4.0 -3.9 -3.5
-2.0 -2.1 -2.4 -3.0 -3.4 -3.3 -2.9 -3.2 -3.4 -3.3 -3.9 -4.3 -4.3 -3.5 -3.6 -4.0 -4.1 -3.1 -1.6 -4.0 -4.7 -5.0 -5.3 -4.9 -4.9 -4.6 -4.5 -4.3 -4.0 -2.1 -1.3 -1.1 -0.9 -3.5 -3.4 1.0 -1.4 -2.1 -2.2 -2.1 -0.8 -0.5 0.5
-1.0 -0.7 -0.2 -1.0 -1.7 -2.5 -2.0 -1.6 -1.5 -2.3 -2.9 -3.2 -3.2 -3.0 -2.8 -2.9 -2.5 -0.5 -1.7 -3.2 -3.9 -3.8 -3.0 -2.7 -2.6 -2.3 -1.7 -1.4 -2.4 -1.4 -2.5 -0.2 1.4 -1.6 -1.9 -0.4 0.3 0.2 0.1 -0.3 0.2 1.6 1.7
1.9 -0.3 0.1 0.1 -0.2 -0.7 -0.2 0.1 0.1 -0.3 -0.9 -1.4 -1.5 -1.4 -1.6 -1.7 -1.6 -1.4 -1.4 -1.8 -1.6 -1.7 -1.2 -0.9 -0.5 -0.1 0.3 0.2 -0.3 -1.4 -1.1 -0.4 -1.2 1.5 -0.4 1.1 1.5 0.8 2.3 -0.3 2.8 2.5 3.2
Wind_Speed
8 7 7 10 11 15 13 9 9 7 10 13 14 10 8 7 19 17 15 23 23 21 18 18 17 17 17 18 16 15 15 13 13 12 12 11 10 11 12 11 10 10 9
6 7 7 8 8 14 13 11 6 5 5 8 7 9 8 12 19 20 16 17 22 20 18 18 17 18 17 17 16 15 14 13 13 13 12 11 10 9 11 10 9 9 8
8 8 6 6 6 13 12 9 6 4 6 8 10 5 7 10 7 21 19 15 18 20 18 18 18 17 17 16 16 15 14 13 12 12 11 11 10 9 9 9 9 9 8
13 8 6 5 8 8 7 6 6 6 9 9 6 5 5 8 7 18 20 18 14 13 18 20 19 18 18 17 14 15 14 13 13 13 12 11 10 10 10 10 9 9 9
12 6 7 7 12 6 6 7 6 6 6 6 9 5 6 5 5 9 18 19 19 17 14 17 19 18 17 18 16 16 15 15 14 13 13 12 12 11 11 11 11 11 10
10 5 5 7 8 7 7 6 8 5 5 7 9 5 5 6 4 3 9 16 15 17 17 18 17 15 18 20 19 18 18 16 16 16 15 14 14 14 13 13 13 13 13
8 8 5 8 8 8 9 10 5 8 5 6 4 6 6 5 4 4 7 10 15 19 17 19 18 17 18 20 20 21 19 19 18 17 17 17 17 16 16 16 16 16 16
8 8 8 10 11 7 9 10 9 4 4 6 7 4 3 3 2 2 2 4 11 14 14 20 20 19 20 19 21 23 22 21 20 20 19 19 19 19 19 18 19 20 19
7 7 8 9 9 9 9 12 10 9 6 5 11 5 4 3 3 1 2 2 2 3 6 16 20 20 22 21 23 26 26 23 20 21 22 23 23 23 23 23 23 24 22
7 8 9 12 12 9 10 11 9 8 3 8 5 8 5 6 4 3 3 4 4 6 5 6 11 14 13 21 24 25 31 31 28 24 21 23 26 26 26 27 26 26 26
4 9 10 11 11 9 10 13 11 9 5 6 4 3 4 2 6 4 5 5 4 4 4 4 3 11 15 13 14 21 29 35 35 33 29 26 23 25 29 29 28 29 29
4 4 6 9 11 12 13 11 10 11 8 4 4 6 4 3 3 3 3 7 10 5 5 5 4 7 14 17 19 17 22 31 35 35 33 31 30 30 29 28 30 31 32
4 4 4 7 8 9 12 13 9 9 9 5 9 7 3 3 2 2 3 3 3 4 4 5 5 12 13 15 18 26 23 28 32 34 35 34 32 32 31 31 31 32 32
5 7 4 6 7 10 12 12 13 8 9 8 9 4 3 3 2 2 3 3 1 1 3 5 7 10 16 18 20 21 22 28 29 31 35 36 35 34 33 32 33 34 34
6 8 8 7 6 5 11 13 10 9 8 9 8 5 2 2 2 3 2 2 2 2 3 2 2 10 12 15 18 22 20 20 24 29 34 36 36 35 35 34 34 35 36
9 9 8 8 6 6 5 6 8 6 6 4 3 5 3 3 2 2 1 2 1 3 6 2 2 1 6 9 16 19 20 24 29 31 33 36 37 37 37 36 35 35 35
7 9 9 9 8 8 7 6 6 6 6 5 4 5 4 3 2 1 1 2 4 6 7 7 5 4 3 5 7 11 16 17 19 29 32 36 37 39 39 38 38 36 37
6 6 7 8 9 8 8 9 9 8 9 8 7 5 6 4 5 5 4 7 9 10 10 15 7 3 5 8 7 6 10 20 21 23 27 40 41 42 41 40 41 42 36
6 5 5 8 9 8 10 9 9 9 9 9 8 8 7 8 9 8 9 10 7 6 6 7 11 9 10 9 11 12 13 13 23 29 36 37 35 38 19 16 13 11 16
6 5 8 12 12 12 10 6 5 8 9 9 9 10 10 11 12 12 12 11 10 9 8 9 10 10 10 12 10 11 11 9 11 16 21 10 30 26 22 16 17 16 15
11 12 13 12 12 11 8 7 5 4 7 9 9 9 6 13 18 13 2 3 5 8 9 9 10 9 10 10 8 4 5 5 4 6 5 6 8 11 14 16 15 18 18
13 14 13 12 11 8 11 8 3 8 11 10 9 8 9 15 11 12 19 19 12 3 4 3 5 5 4 4 5 5 4 3 3 8 6 2 4 5 8 11 17 17 18
13 13 12 11 12 11 15 11 15 11 11 11 11 10 9 8 10 8 13 16 18 17 15 4 3 5 4 6 5 5 3 1 2 5 4 2 2 4 8 13 19 19 19
14 12 12 12 11 12 17 17 18 13 13 14 13 11 10 10 10 6 9 12 12 13 11 8 9 7 5 6 4 3 4 4 2 5 7 2 3 3 4 8 13 14 14
14 13 12 12 13 14 20 12 13 12 13 14 13 15 11 12 18 15 11 11 10 9 17 21 20 17 19 22 20 4 5 3 2 3 8 3 2 0 1 1 5 8 10
13 12 14 13 19 14 22 16 12 8 12 9 11 12 21 17 22 19 11 9 10 7 5 5 4 8 13 17 22 13 6 5 3 2 5 4 2 2 1 0 2 5 6
Wind_Direction
171 164 167 163 166 168 163 171 191 191 162 172 189 192 188 140 126 129 138 144 141 145 152 155 152 152 148 142 144 146 146 151 147 141 140 141 142 142 134 130 130 130 139
172 172 168 166 165 165 167 171 176 189 169 183 192 164 190 123 136 135 132 143 145 152 158 160 161 157 157 152 153 151 152 159 160 159 156 155 147 143 142 145 150 152 161
173 171 173 165 164 168 163 170 159 208 170 202 177 177 142 114 130 135 138 147 157 160 164 166 159 160 163 161 156 162 165 166 167 167 168 168 166 165 162 167 172 168 180
179 177 167 167 155 145 154 159 165 188 197 189 171 153 125 126 174 145 142 149 154 160 164 163 169 168 165 166 175 171 172 173 176 178 177 181 183 185 188 188 189 192 197
178 177 174 163 157 151 165 164 180 186 178 204 158 158 138 139 151 159 154 154 160 160 169 175 176 172 175 173 180 181 182 183 187 189 190 195 199 203 205 205 206 209 214
174 176 165 153 147 154 154 165 168 161 176 201 155 127 121 132 158 178 141 149 154 164 165 168 178 184 181 185 183 194 190 192 195 199 202 206 209 211 214 219 219 220 222
174 162 156 154 163 170 165 165 148 169 185 235 112 96 78 70 149 165 156 160 169 181 186 168 171 177 190 197 194 196 201 198 202 206 209 211 214 216 220 224 226 226 228
179 184 166 173 172 160 164 166 166 163 188 213 146 116 104 34 17 35 167 184 170 177 179 174 181 190 185 194 204 202 206 208 208 209 214 217 218 218 222 227 232 233 228
188 173 171 173 170 172 171 172 166 179 177 218 157 136 129 182 130 131 279 290 208 160 184 176 191 198 184 194 201 206 209 214 217 220 214 215 217 220 222 226 228 237 236
183 166 172 180 176 176 178 169 170 180 164 182 170 165 164 147 160 144 216 231 251 200 209 195 196 203 205 185 199 201 208 213 217 224 228 223 221 223 226 228 228 232 235
136 153 163 173 180 174 169 173 171 176 175 181 186 160 192 160 174 145 169 195 207 211 197 201 191 190 210 226 207 201 208 214 218 223 228 231 231 231 231 233 232 236 236
157 166 184 195 200 181 167 169 172 178 188 200 193 203 184 161 166 155 114 186 198 217 197 192 199 211 209 218 225 230 217 218 222 225 228 229 230 232 234 236 236 237 240
149 164 161 170 165 160 160 170 177 173 183 214 218 208 170 158 147 110 167 175 178 200 195 197 194 205 216 219 217 224 230 226 226 229 232 235 235 236 237 238 242 243 244
151 150 136 131 123 163 168 172 182 180 186 218 221 189 176 153 119 104 124 104 352 247 201 175 204 206 211 218 223 229 227 233 236 236 238 238 240 240 239 240 241 246 248
155 153 152 146 141 124 173 168 176 178 195 216 214 184 152 141 137 106 64 123 129 350 303 296 182 213 211 213 216 221 223 227 236 242 244 246 244 243 243 243 243 243 247
158 158 156 152 153 145 133 123 136 143 164 179 145 147 124 102 61 55 55 107 135 211 254 247 285 164 226 226 223 218 224 232 238 241 246 246 245 244 243 244 245 245 247
148 160 161 160 162 166 162 154 145 151 162 152 156 162 156 126 131 191 224 269 260 267 287 280 268 281 252 220 240 245 242 242 239 238 241 243 244 244 245 245 244 244 244
122 138 153 159 168 169 167 173 176 172 183 186 185 183 193 171 202 217 231 234 236 230 231 257 257 270 270 282 276 263 263 264 263 259 252 245 243 242 243 244 244 243 244
118 122 126 163 163 166 173 180 184 178 192 192 191 189 187 186 222 224 235 245 227 229 223 237 256 261 263 256 257 258 256 254 257 261 262 256 250 245 256 35 22 339 300
121 112 65 61 66 63 51 38 183 184 192 199 190 194 206 212 219 224 229 230 230 232 227 238 250 254 254 258 251 259 264 253 258 259 262 295 66 62 55 43 38 37 36
64 79 76 68 64 55 35 17 12 7 201 195 204 212 49 60 61 44 307 320 275 240 238 241 250 258 259 264 260 300 291 327 359 27 5 36 48 55 43 46 38 33 33
68 74 69 68 60 49 11 14 354 73 60 55 53 43 60 41 28 51 84 68 49 345 280 278 282 303 11 23 354 354 348 6 316 47 4 33 49 54 38 44 44 45 44
74 70 68 65 58 35 13 46 70 74 72 61 50 44 45 34 17 20 99 77 60 53 48 351 52 29 7 356 323 319 342 324 289 9 328 335 41 75 54 54 53 51 49
75 71 66 61 54 30 50 75 79 79 73 63 53 47 49 31 8 356 98 80 66 57 49 60 70 64 46 3 326 293 332 302 112 50 3 5 3 59 50 60 57 54 50
80 70 58 56 56 42 32 64 79 78 76 69 58 50 47 40 23 42 93 90 83 74 64 71 72 65 52 42 36 34 17 348 49 41 21 339 14 39 16 31 29 32 33
81 82 64 54 51 49 41 62 73 87 84 75 64 55 52 56 52 56 71 80 78 64 75 68 57 54 48 42 42 40 15 44 12 46 7 351 346 350 329 303 39 13 350